Torna al catalogo

COSMOS 531

AttivoMilitareLEO
NORAD 6266·PAYLOAD·🇷🇺 Russia

Lanciato Nov 1, 1972 da Plesetsk Cosmodrome

Loading…

Prossimi Passaggi (prossime 24 ore)

TLE

AggiornatoSource: Space-Track

Epoca: Sep 14, 2026, 05:55 UTC

1 06266U 72087D   26257.24668850 -.00000002  00000-0  85496-4 0  9994
2 06266  74.0393 355.9442 0030594 148.9977 238.9652 12.54806087467447

Traccia COSMOS 531 in tempo reale con AllMySat

Download on the App Store